Location: College Park
(38.9810°N, 76.9370°W)
Time: 04:07:59
(UTC-05:00)

Hubble Space Telescope - Pass Details

Date: 03 January 2018
Orbit: 537 x 541 km, 28.5° (Epoch: 20 January)

Event Time Altitude Azimuth Distance (km) Brightness Sun altitude
Rises 06:52:56 0° 239° (WSW) 2,675 4.0 -6.7°
Reaches altitude 10° 06:55:43 10° 220° (SW) 1,784 3.3 -6.2°
Maximum altitude 06:58:35 18° 176° (S) 1,334 3.2 -5.7°
Drops below altitude 10° 07:01:28 10° 132° (SE) 1,783 5.0 -5.2°
Sets 07:04:15 0° 113° (ESE) 2,673 7.4 -4.7°
